When you browse on this site, cookies collect data to enhance your experience and personalize the content and advertising you see.
Visit our Privacy Policy to learn more. By continuing to use the site, you agree to this use of cookies and data.
  • en France
  • Liste des pays
  • À 7 jours
  • Température de l'eau
  • Carte météo
  • Widgets météo
  • user-avatar
    Se connecter

    Météo par heure à Zimapán

    Ce jour, 15 Septembre, Dimanche

    Heure Température Précipitation Vent Pression Humidité
    00:00 +15°C° 0.1 mm 1 m/s 613 mmHg 94%
    01:00 +15°C° 0.1 mm 1 m/s 613 mmHg 94%
    02:00 +15°C° 0.1 mm 1 m/s 612 mmHg 93%
    03:00 +15°C° 0 mm 1 m/s 612 mmHg 94%
    04:00 +13°C° 0 mm 0 m/s 612 mmHg 94%
    05:00 +13°C° 0 mm 0 m/s 612 mmHg 94%
    06:00 +14°C° 0 mm 0 m/s 613 mmHg 87%
    07:00 +16°C° 0 mm 0 m/s 613 mmHg 80%
    08:00 +17°C° 0 mm 0 m/s 614 mmHg 74%
    09:00 +21°C° 0 mm 1 m/s 614 mmHg 67%
    10:00 +22°C° 0 mm 1 m/s 615 mmHg 60%
    11:00 +24°C° 0 mm 2 m/s 615 mmHg 53%
    12:00 +24°C° 0 mm 3 m/s 614 mmHg 53%
    13:00 +24°C° 0 mm 3 m/s 614 mmHg 53%
    14:00 +23°C° 0 mm 4 m/s 613 mmHg 53%
    15:00 +22°C° 0.1 mm 4 m/s 613 mmHg 60%
    16:00 +21°C° 0.1 mm 3 m/s 612 mmHg 67%
    17:00 +20°C° 0.1 mm 3 m/s 612 mmHg 74%
    18:00 +18°C° 0.1 mm 2 m/s 612 mmHg 81%
    19:00 +17°C° 0.1 mm 2 m/s 612 mmHg 89%
    20:00 +16°C° 0.1 mm 1 m/s 613 mmHg 96%
    21:00 +16°C° 0 mm 1 m/s 613 mmHg 95%
    22:00 +15°C° 0 mm 1 m/s 613 mmHg 94%
    23:00 +15°C° 0 mm 1 m/s 613 mmHg 93%

    Demain, 16 Septembre, Lundi

    Heure Température Précipitation Vent Pression Humidité
    00:00 +14°C° 0 mm 0 m/s 612 mmHg 93%
    01:00 +13°C° 0 mm 0 m/s 612 mmHg 93%
    02:00 +13°C° 0 mm 0 m/s 611 mmHg 93%
    03:00 +12°C° 0 mm 0 m/s 611 mmHg 92%
    04:00 +12°C° 0 mm 0 m/s 611 mmHg 91%
    05:00 +12°C° 0 mm 0 m/s 611 mmHg 91%
    06:00 +14°C° 0 mm 0 m/s 612 mmHg 82%
    07:00 +16°C° 0 mm 0 m/s 613 mmHg 73%
    08:00 +18°C° 0 mm 0 m/s 614 mmHg 64%
    09:00 +21°C° 0 mm 1 m/s 614 mmHg 58%
    10:00 +23°C° 0 mm 2 m/s 614 mmHg 51%
    11:00 +24°C° 0 mm 2 m/s 615 mmHg 44%
    12:00 +25°C° 0 mm 3 m/s 614 mmHg 45%
    13:00 +25°C° 0 mm 3 m/s 613 mmHg 46%
    14:00 +25°C° 0 mm 4 m/s 613 mmHg 47%
    15:00 +23°C° 0 mm 4 m/s 612 mmHg 56%
    16:00 +22°C° 0 mm 3 m/s 612 mmHg 64%
    17:00 +20°C° 0 mm 3 m/s 612 mmHg 73%
    18:00 +19°C° 0 mm 2 m/s 612 mmHg 80%
    19:00 +18°C° 0 mm 2 m/s 612 mmHg 88%
    20:00 +16°C° 0 mm 1 m/s 612 mmHg 96%
    21:00 +16°C° 0 mm 1 m/s 612 mmHg 96%
    22:00 +16°C° 0 mm 1 m/s 612 mmHg 95%
    23:00 +15°C° 0 mm 0 m/s 612 mmHg 95%

    Après-demain, 17 Septembre, Mardi

    Heure Température Précipitation Vent Pression Humidité
    00:00 +14°C° 0 mm 0 m/s 612 mmHg 94%
    01:00 +14°C° 0 mm 0 m/s 611 mmHg 94%
    02:00 +14°C° 0 mm 0 m/s 611 mmHg 94%
    03:00 +14°C° 0 mm 0 m/s 611 mmHg 93%
    04:00 +13°C° 0 mm 0 m/s 611 mmHg 93%
    05:00 +14°C° 0 mm 1 m/s 611 mmHg 92%
    06:00 +15°C° 0 mm 0 m/s 612 mmHg 85%
    07:00 +17°C° 0 mm 0 m/s 613 mmHg 77%
    08:00 +18°C° 0 mm 0 m/s 614 mmHg 70%
    09:00 +22°C° 0 mm 1 m/s 614 mmHg 64%
    10:00 +23°C° 0 mm 1 m/s 614 mmHg 58%
    11:00 +25°C° 0 mm 2 m/s 614 mmHg 52%
    12:00 +25°C° 0.1 mm 3 m/s 614 mmHg 55%
    13:00 +25°C° 0.1 mm 3 m/s 613 mmHg 58%
    14:00 +23°C° 0.1 mm 4 m/s 612 mmHg 61%
    15:00 +22°C° 0.7 mm 4 m/s 612 mmHg 67%
    16:00 +22°C° 0.7 mm 3 m/s 612 mmHg 73%
    17:00 +21°C° 0.7 mm 3 m/s 612 mmHg 79%
    18:00 +20°C° 0.9 mm 3 m/s 612 mmHg 84%
    19:00 +19°C° 0.9 mm 2 m/s 612 mmHg 89%
    20:00 +18°C° 0.9 mm 2 m/s 613 mmHg 94%
    21:00 +19°C° 0.3 mm 1 m/s 613 mmHg 94%
    22:00 +18°C° 0.3 mm 1 m/s 613 mmHg 94%
    23:00 +18°C° 0.3 mm 1 m/s 613 mmHg 94%

    18 Septembre, Mercredi

    Heure Température Précipitation Vent Pression Humidité
    00:00 +18°C° 0.1 mm 1 m/s 612 mmHg 93%
    01:00 +18°C° 0.1 mm 1 m/s 612 mmHg 93%
    02:00 +16°C° 0.1 mm 0 m/s 612 mmHg 92%
    03:00 +16°C° 0 mm 0 m/s 612 mmHg 92%
    04:00 +16°C° 0 mm 0 m/s 612 mmHg 91%
    05:00 +16°C° 0 mm 0 m/s 612 mmHg 91%
    06:00 +16°C° 0 mm 0 m/s 613 mmHg 87%
    07:00 +17°C° 0 mm 0 m/s 613 mmHg 83%
    08:00 +18°C° 0 mm 0 m/s 614 mmHg 80%
    09:00 +21°C° 0 mm 1 m/s 614 mmHg 76%
    10:00 +22°C° 0 mm 1 m/s 614 mmHg 71%
    11:00 +23°C° 0 mm 1 m/s 614 mmHg 67%
    12:00 +23°C° 0.2 mm 2 m/s 613 mmHg 66%
    13:00 +24°C° 0.2 mm 2 m/s 613 mmHg 65%
    14:00 +24°C° 0.2 mm 3 m/s 612 mmHg 64%
    15:00 +22°C° 0.2 mm 3 m/s 612 mmHg 70%
    16:00 +21°C° 0.2 mm 3 m/s 612 mmHg 75%
    17:00 +20°C° 0.2 mm 3 m/s 612 mmHg 81%
    18:00 +19°C° 0.2 mm 2 m/s 612 mmHg 86%
    19:00 +18°C° 0.2 mm 2 m/s 612 mmHg 91%
    20:00 +18°C° 0.2 mm 1 m/s 612 mmHg 97%
    21:00 +18°C° 0 mm 1 m/s 612 mmHg 96%
    22:00 +18°C° 0 mm 1 m/s 612 mmHg 96%
    23:00 +18°C° 0 mm 1 m/s 613 mmHg 95%

    19 Septembre, Jeudi

    Heure Température Précipitation Vent Pression Humidité
    00:00 +18°C° 0.1 mm 1 m/s 612 mmHg 95%
    01:00 +18°C° 0.1 mm 1 m/s 612 mmHg 95%
    02:00 +18°C° 0.1 mm 1 m/s 612 mmHg 94%
    03:00 +18°C° 0.1 mm 1 m/s 612 mmHg 94%
    04:00 +18°C° 0.1 mm 1 m/s 612 mmHg 95%
    05:00 +18°C° 0.1 mm 1 m/s 612 mmHg 95%
    06:00 +18°C° 0.1 mm 1 m/s 612 mmHg 90%
    07:00 +19°C° 0.1 mm 1 m/s 613 mmHg 86%
    08:00 +20°C° 0.1 mm 1 m/s 613 mmHg 81%
    09:00 +20°C° 0.1 mm 2 m/s 613 mmHg 76%
    10:00 +23°C° 0.1 mm 2 m/s 613 mmHg 71%
    11:00 +24°C° 0.1 mm 3 m/s 613 mmHg 66%
    12:00 +24°C° 0.3 mm 3 m/s 613 mmHg 66%
    13:00 +23°C° 0.3 mm 4 m/s 612 mmHg 67%
    14:00 +23°C° 0.3 mm 4 m/s 612 mmHg 68%
    15:00 +22°C° 0.1 mm 4 m/s 612 mmHg 73%
    16:00 +21°C° 0.1 mm 4 m/s 611 mmHg 78%
    17:00 +19°C° 0.1 mm 4 m/s 611 mmHg 83%
    18:00 +19°C° 0.1 mm 3 m/s 612 mmHg 87%
    19:00 +18°C° 0.1 mm 2 m/s 612 mmHg 91%
    20:00 +18°C° 0.1 mm 1 m/s 612 mmHg 95%
    21:00 +16°C° 0 mm 1 m/s 612 mmHg 95%
    22:00 +16°C° 0 mm 1 m/s 612 mmHg 95%
    23:00 +16°C° 0 mm 1 m/s 612 mmHg 95%

    20 Septembre, Vendredi

    Heure Température Précipitation Vent Pression Humidité
    00:00 +16°C° 0 mm 1 m/s 612 mmHg 93%
    01:00 +16°C° 0 mm 1 m/s 612 mmHg 92%
    02:00 +16°C° 0 mm 1 m/s 612 mmHg 90%
    03:00 +16°C° 0 mm 1 m/s 612 mmHg 89%
    04:00 +16°C° 0 mm 1 m/s 612 mmHg 88%
    05:00 +16°C° 0 mm 1 m/s 612 mmHg 87%
    06:00 +16°C° 0 mm 1 m/s 612 mmHg 83%
    07:00 +18°C° 0 mm 1 m/s 613 mmHg 78%
    08:00 +19°C° 0 mm 1 m/s 613 mmHg 73%
    09:00 +20°C° 0 mm 2 m/s 613 mmHg 66%
    10:00 +21°C° 0 mm 2 m/s 614 mmHg 58%
    11:00 +24°C° 0 mm 3 m/s 614 mmHg 51%
    12:00 +24°C° 0 mm 3 m/s 613 mmHg 51%
    13:00 +23°C° 0 mm 4 m/s 613 mmHg 51%
    14:00 +25°C° 0 mm 5 m/s 613 mmHg 51%
    15:00 +22°C° 0 mm 4 m/s 612 mmHg 59%
    16:00 +21°C° 0 mm 4 m/s 612 mmHg 67%
    17:00 +20°C° 0 mm 3 m/s 611 mmHg 75%
    18:00 +18°C° 0 mm 3 m/s 612 mmHg 82%
    19:00 +17°C° 0 mm 2 m/s 612 mmHg 88%
    20:00 +16°C° 0 mm 1 m/s 612 mmHg 95%
    21:00 +16°C° 0 mm 1 m/s 612 mmHg 95%
    22:00 +16°C° 0 mm 1 m/s 612 mmHg 94%
    23:00 +16°C° 0 mm 1 m/s 613 mmHg 94%
    Voir plus